Year,Month,Day,Hour,Minute,Value (Times are PST for temperature in C)
2019,04,02,00,00,9.50
2019,04,02,00,01,9.60
2019,04,02,00,02,9.60
2019,04,02,00,03,9.60
2019,04,02,00,04,9.60
2019,04,02,00,05,9.60
2019,04,02,00,06,9.60
2019,04,02,00,07,9.60
2019,04,02,00,08,9.60
2019,04,02,00,09,9.60
2019,04,02,00,10,9.50
2019,04,02,00,11,9.50
2019,04,02,00,12,9.40
2019,04,02,00,13,9.30
2019,04,02,00,14,9.20
2019,04,02,00,15,9.00
2019,04,02,00,16,8.90
2019,04,02,00,17,8.90
2019,04,02,00,18,8.80
2019,04,02,00,19,8.70
2019,04,02,00,20,8.70
2019,04,02,00,21,8.70
2019,04,02,00,22,8.70
2019,04,02,00,23,8.60
2019,04,02,00,24,8.60
2019,04,02,00,25,8.60
2019,04,02,00,26,8.60
2019,04,02,00,27,8.50
2019,04,02,00,28,8.50
2019,04,02,00,29,8.50
2019,04,02,00,30,8.50
2019,04,02,00,31,8.50
2019,04,02,00,32,8.50
2019,04,02,00,33,8.40
2019,04,02,00,34,8.40
2019,04,02,00,35,8.40
2019,04,02,00,36,8.30
2019,04,02,00,37,8.30
2019,04,02,00,38,8.30
2019,04,02,00,39,8.20
2019,04,02,00,40,8.20
2019,04,02,00,41,8.20
2019,04,02,00,42,8.20
2019,04,02,00,43,8.20
2019,04,02,00,44,8.20
2019,04,02,00,45,8.20
2019,04,02,00,46,8.20
2019,04,02,00,47,8.10
2019,04,02,00,48,8.10
2019,04,02,00,49,8.10
2019,04,02,00,50,8.00
2019,04,02,00,51,8.00
2019,04,02,00,52,8.00
2019,04,02,00,53,7.90
2019,04,02,00,54,7.90
2019,04,02,00,55,7.80
2019,04,02,00,56,7.80
2019,04,02,00,57,7.70
2019,04,02,00,58,7.70
2019,04,02,00,59,7.70
2019,04,02,01,00,7.60
2019,04,02,01,01,7.60
2019,04,02,01,02,7.60
2019,04,02,01,03,7.60
2019,04,02,01,04,7.60
2019,04,02,01,05,7.60
2019,04,02,01,06,7.60
2019,04,02,01,07,7.60
2019,04,02,01,08,7.70
2019,04,02,01,09,7.70
2019,04,02,01,10,7.80
2019,04,02,01,11,7.90
2019,04,02,01,12,7.90
2019,04,02,01,13,8.00
2019,04,02,01,14,8.00
2019,04,02,01,15,8.00
2019,04,02,01,16,8.00
2019,04,02,01,17,8.10
2019,04,02,01,18,8.20
2019,04,02,01,19,8.30
2019,04,02,01,20,8.30
2019,04,02,01,21,8.40
2019,04,02,01,22,8.40
2019,04,02,01,23,8.50
2019,04,02,01,24,8.50
2019,04,02,01,25,8.60
2019,04,02,01,26,8.60
2019,04,02,01,27,8.60
2019,04,02,01,28,8.70
2019,04,02,01,29,8.70
2019,04,02,01,30,8.80
2019,04,02,01,31,8.80
2019,04,02,01,32,8.90
2019,04,02,01,33,8.90
2019,04,02,01,34,9.00
2019,04,02,01,35,9.00
2019,04,02,01,36,9.10
2019,04,02,01,37,9.10
2019,04,02,01,38,9.20
2019,04,02,01,39,9.20
2019,04,02,01,40,9.20
2019,04,02,01,41,9.20
2019,04,02,01,42,9.30
2019,04,02,01,43,9.40
2019,04,02,01,44,9.40
2019,04,02,01,45,9.50
2019,04,02,01,46,9.50
2019,04,02,01,47,9.60
2019,04,02,01,48,9.60
2019,04,02,01,49,9.60
2019,04,02,01,50,9.60
2019,04,02,01,51,9.70
2019,04,02,01,52,9.70
2019,04,02,01,53,9.70
2019,04,02,01,54,9.70
2019,04,02,01,55,9.70
2019,04,02,01,56,9.60
2019,04,02,01,57,9.60
2019,04,02,01,58,9.60
2019,04,02,01,59,9.60
2019,04,02,02,00,9.60
2019,04,02,02,01,9.60
2019,04,02,02,02,9.50
2019,04,02,02,03,9.50
2019,04,02,02,04,9.50
2019,04,02,02,05,9.50
2019,04,02,02,06,9.50
2019,04,02,02,07,9.50
2019,04,02,02,08,9.50
2019,04,02,02,09,9.50
2019,04,02,02,10,9.50
2019,04,02,02,11,9.40
2019,04,02,02,12,9.40
2019,04,02,02,13,9.40
2019,04,02,02,14,9.40
2019,04,02,02,15,9.40
2019,04,02,02,16,9.40
2019,04,02,02,17,9.40
2019,04,02,02,18,9.40
2019,04,02,02,19,9.40
2019,04,02,02,20,9.40
2019,04,02,02,21,9.40
2019,04,02,02,22,9.40
2019,04,02,02,23,9.30
2019,04,02,02,24,9.30
2019,04,02,02,25,9.30
2019,04,02,02,26,9.30
2019,04,02,02,27,9.30
2019,04,02,02,28,9.30
2019,04,02,02,29,9.20
2019,04,02,02,30,9.20
2019,04,02,02,31,9.20
2019,04,02,02,32,9.20
2019,04,02,02,33,9.10
2019,04,02,02,34,9.10
2019,04,02,02,35,9.00
2019,04,02,02,36,9.00
2019,04,02,02,37,9.00
2019,04,02,02,38,8.90
2019,04,02,02,39,8.90
2019,04,02,02,40,8.80
2019,04,02,02,41,8.80
2019,04,02,02,42,8.80
2019,04,02,02,43,8.70
2019,04,02,02,44,8.70
2019,04,02,02,45,8.70
2019,04,02,02,46,8.70
2019,04,02,02,47,8.70
2019,04,02,02,48,8.60
2019,04,02,02,49,8.50
2019,04,02,02,50,8.50
2019,04,02,02,51,8.50
2019,04,02,02,52,8.50
2019,04,02,02,53,8.50
2019,04,02,02,54,8.40
2019,04,02,02,55,8.40
2019,04,02,02,56,8.40
2019,04,02,02,57,8.30
2019,04,02,02,58,8.30
2019,04,02,02,59,8.30
2019,04,02,03,00,8.30
2019,04,02,03,01,8.30
2019,04,02,03,02,8.20
2019,04,02,03,03,8.20
2019,04,02,03,04,8.20
2019,04,02,03,05,8.20
2019,04,02,03,06,8.20
2019,04,02,03,07,8.20
2019,04,02,03,08,8.30
2019,04,02,03,09,8.30
2019,04,02,03,10,8.40
2019,04,02,03,11,8.50
2019,04,02,03,12,8.50
2019,04,02,03,13,8.60
2019,04,02,03,14,8.70
2019,04,02,03,15,8.70
2019,04,02,03,16,8.80
2019,04,02,03,17,8.90
2019,04,02,03,18,9.00
2019,04,02,03,19,9.00
2019,04,02,03,20,9.10
2019,04,02,03,21,9.20
2019,04,02,03,22,9.20
2019,04,02,03,23,9.20
2019,04,02,03,24,9.30
2019,04,02,03,25,9.30
2019,04,02,03,26,9.40
2019,04,02,03,27,9.40
2019,04,02,03,28,9.40
2019,04,02,03,29,9.50
2019,04,02,03,30,9.50
2019,04,02,03,31,9.60
2019,04,02,03,32,9.60
2019,04,02,03,33,9.60
2019,04,02,03,34,9.70
2019,04,02,03,35,9.70
2019,04,02,03,36,9.70
2019,04,02,03,37,9.70
2019,04,02,03,38,9.70
2019,04,02,03,39,9.70
2019,04,02,03,40,9.70
2019,04,02,03,41,9.80
2019,04,02,03,42,9.80
2019,04,02,03,43,9.80
2019,04,02,03,44,9.80
2019,04,02,03,45,9.80
2019,04,02,03,46,9.80
2019,04,02,03,47,9.80
2019,04,02,03,48,9.80
2019,04,02,03,49,9.80
2019,04,02,03,50,9.80
2019,04,02,03,51,9.80
2019,04,02,03,52,9.80
2019,04,02,03,53,9.80
2019,04,02,03,54,9.80
2019,04,02,03,55,9.70
2019,04,02,03,56,9.70
2019,04,02,03,57,9.70
2019,04,02,03,58,9.70
2019,04,02,03,59,9.70
2019,04,02,04,00,9.70
2019,04,02,04,01,9.70
2019,04,02,04,02,9.70
2019,04,02,04,03,9.70
2019,04,02,04,04,9.70
2019,04,02,04,05,9.70
2019,04,02,04,06,9.60
2019,04,02,04,07,9.60
2019,04,02,04,08,9.60
2019,04,02,04,09,9.60
2019,04,02,04,10,9.50
2019,04,02,04,11,9.50
2019,04,02,04,12,9.50
2019,04,02,04,13,9.50
2019,04,02,04,14,9.50
2019,04,02,04,15,9.50
2019,04,02,04,16,9.50
2019,04,02,04,17,9.50
2019,04,02,04,18,9.50
2019,04,02,04,19,9.50
2019,04,02,04,20,9.50
2019,04,02,04,21,9.50
2019,04,02,04,22,9.60
2019,04,02,04,23,9.60
2019,04,02,04,24,9.60
2019,04,02,04,25,9.60
2019,04,02,04,26,9.60
2019,04,02,04,27,9.60
2019,04,02,04,28,9.60
2019,04,02,04,29,9.60
2019,04,02,04,30,9.60
2019,04,02,04,31,9.60
2019,04,02,04,32,9.60
2019,04,02,04,33,9.50
2019,04,02,04,34,9.50
2019,04,02,04,35,9.50
2019,04,02,04,36,9.60
2019,04,02,04,37,9.60
2019,04,02,04,38,9.60
2019,04,02,04,39,9.60
2019,04,02,04,40,9.70
2019,04,02,04,41,9.70
2019,04,02,04,42,9.70
2019,04,02,04,43,9.70
2019,04,02,04,44,9.70
2019,04,02,04,45,9.70
2019,04,02,04,46,9.70
2019,04,02,04,47,9.70
2019,04,02,04,48,9.70
2019,04,02,04,49,9.70
2019,04,02,04,50,9.70
2019,04,02,04,51,9.70
2019,04,02,04,52,9.70
2019,04,02,04,53,9.70
2019,04,02,04,54,9.70
2019,04,02,04,55,9.70
2019,04,02,04,56,9.70
2019,04,02,04,57,9.60
2019,04,02,04,58,9.60
2019,04,02,04,59,9.60
2019,04,02,05,00,9.60
2019,04,02,05,01,9.60
2019,04,02,05,02,9.50
2019,04,02,05,03,9.50
2019,04,02,05,04,9.50
2019,04,02,05,05,9.50
2019,04,02,05,06,9.50
2019,04,02,05,07,9.50
2019,04,02,05,08,9.40
2019,04,02,05,09,9.40
2019,04,02,05,10,9.40
2019,04,02,05,11,9.40
2019,04,02,05,12,9.40
2019,04,02,05,13,9.40
2019,04,02,05,14,9.40
2019,04,02,05,15,9.40
2019,04,02,05,16,9.40
2019,04,02,05,17,9.40
2019,04,02,05,18,9.50
2019,04,02,05,19,9.50
2019,04,02,05,20,9.60
2019,04,02,05,21,9.70
2019,04,02,05,22,9.70
2019,04,02,05,23,9.70
2019,04,02,05,24,9.70
2019,04,02,05,25,9.70
2019,04,02,05,26,9.80
2019,04,02,05,27,9.80
2019,04,02,05,28,9.90
2019,04,02,05,29,9.90
2019,04,02,05,30,9.90
2019,04,02,05,31,9.90
2019,04,02,05,32,9.90
2019,04,02,05,33,9.90
2019,04,02,05,34,9.90
2019,04,02,05,35,9.90
2019,04,02,05,36,9.90
2019,04,02,05,37,9.90
2019,04,02,05,38,9.90
2019,04,02,05,39,9.90
2019,04,02,05,40,9.90
2019,04,02,05,41,10.00
2019,04,02,05,42,10.10
2019,04,02,05,43,10.10
2019,04,02,05,44,10.10
2019,04,02,05,45,10.20
2019,04,02,05,46,10.20
2019,04,02,05,47,10.30
2019,04,02,05,48,10.40
2019,04,02,05,49,10.40
2019,04,02,05,50,10.40
2019,04,02,05,51,10.40
2019,04,02,05,52,10.40
2019,04,02,05,53,10.40
2019,04,02,05,54,10.40
2019,04,02,05,55,10.40
2019,04,02,05,56,10.40
2019,04,02,05,57,10.40
2019,04,02,05,58,10.40
2019,04,02,05,59,10.40
2019,04,02,06,00,10.40
2019,04,02,06,01,10.50
2019,04,02,06,02,10.60
2019,04,02,06,03,10.60
2019,04,02,06,04,10.60
2019,04,02,06,05,10.60
2019,04,02,06,06,10.60
2019,04,02,06,07,10.60
2019,04,02,06,08,10.60
2019,04,02,06,09,10.60
2019,04,02,06,10,10.60
2019,04,02,06,11,10.60
2019,04,02,06,12,10.60
2019,04,02,06,13,10.60
2019,04,02,06,14,10.60
2019,04,02,06,15,10.60
2019,04,02,06,16,10.50
2019,04,02,06,17,10.40
2019,04,02,06,18,10.40
2019,04,02,06,19,10.40
2019,04,02,06,20,10.40
2019,04,02,06,21,10.40
2019,04,02,06,22,10.40
2019,04,02,06,23,10.40
2019,04,02,06,24,10.40
2019,04,02,06,25,10.30
2019,04,02,06,26,10.30
2019,04,02,06,27,10.30
2019,04,02,06,28,10.30
2019,04,02,06,29,10.30
2019,04,02,06,30,10.30
2019,04,02,06,31,10.40
2019,04,02,06,32,10.40
2019,04,02,06,33,10.30
2019,04,02,06,34,10.30
2019,04,02,06,35,10.30
2019,04,02,06,36,10.30
2019,04,02,06,37,10.30
2019,04,02,06,38,10.30
2019,04,02,06,39,10.30
2019,04,02,06,40,10.30
2019,04,02,06,41,10.20
2019,04,02,06,42,10.20
2019,04,02,06,43,10.20
2019,04,02,06,44,10.20
2019,04,02,06,45,10.20
2019,04,02,06,46,10.20
2019,04,02,06,47,10.20
2019,04,02,06,48,10.20
2019,04,02,06,49,10.20
2019,04,02,06,50,10.10
2019,04,02,06,51,10.10
2019,04,02,06,52,10.10
2019,04,02,06,53,10.10
2019,04,02,06,54,10.10
2019,04,02,06,55,10.00
2019,04,02,06,56,9.90
2019,04,02,06,57,9.90
2019,04,02,06,58,9.90
2019,04,02,06,59,9.90
2019,04,02,07,00,9.90
2019,04,02,07,01,9.90
2019,04,02,07,02,9.80
2019,04,02,07,03,9.80
2019,04,02,07,04,9.80
2019,04,02,07,05,9.80
2019,04,02,07,06,9.70
2019,04,02,07,07,9.70
2019,04,02,07,08,9.70
2019,04,02,07,09,9.70
2019,04,02,07,10,9.70
2019,04,02,07,11,9.70
2019,04,02,07,12,9.70
2019,04,02,07,13,9.70
2019,04,02,07,14,9.70
2019,04,02,07,15,9.70
2019,04,02,07,16,9.70
2019,04,02,07,17,9.70
2019,04,02,07,18,9.70
2019,04,02,07,19,9.70
2019,04,02,07,20,9.70
2019,04,02,07,21,9.70
2019,04,02,07,22,9.70
2019,04,02,07,23,9.70
2019,04,02,07,24,9.70
2019,04,02,07,25,9.70
2019,04,02,07,26,9.70
2019,04,02,07,27,9.70
2019,04,02,07,28,9.70
2019,04,02,07,29,9.70
2019,04,02,07,30,9.80
2019,04,02,07,31,9.80
2019,04,02,07,32,9.90
2019,04,02,07,33,9.90
2019,04,02,07,34,9.90
2019,04,02,07,35,9.90
2019,04,02,07,36,9.90
2019,04,02,07,37,9.90
2019,04,02,07,38,10.00
2019,04,02,07,39,10.10
2019,04,02,07,40,10.10
2019,04,02,07,41,10.10
2019,04,02,07,42,10.10
2019,04,02,07,43,10.20
2019,04,02,07,44,10.20
2019,04,02,07,45,10.20
2019,04,02,07,46,10.30
2019,04,02,07,47,10.30
2019,04,02,07,48,10.40
2019,04,02,07,49,10.40
2019,04,02,07,50,10.40
2019,04,02,07,51,10.50
2019,04,02,07,52,10.60
2019,04,02,07,53,10.60
2019,04,02,07,54,10.70
2019,04,02,07,55,10.80
2019,04,02,07,56,10.80
2019,04,02,07,57,10.90
2019,04,02,07,58,11.00
2019,04,02,07,59,11.10
2019,04,02,08,00,11.20
2019,04,02,08,01,11.30
2019,04,02,08,02,11.30
2019,04,02,08,03,11.40
2019,04,02,08,04,11.50
2019,04,02,08,05,11.60
2019,04,02,08,06,11.60
2019,04,02,08,07,11.60
2019,04,02,08,08,11.60
2019,04,02,08,09,11.70
2019,04,02,08,10,11.70
2019,04,02,08,11,11.80
2019,04,02,08,12,11.80
2019,04,02,08,13,11.90
2019,04,02,08,14,11.90
2019,04,02,08,15,12.00
2019,04,02,08,16,12.00
2019,04,02,08,17,12.10
2019,04,02,08,18,12.10
2019,04,02,08,19,12.20
2019,04,02,08,20,12.20
2019,04,02,08,21,12.30
2019,04,02,08,22,12.30
2019,04,02,08,23,12.30
2019,04,02,08,24,12.40
2019,04,02,08,25,12.50
2019,04,02,08,26,12.50
2019,04,02,08,27,12.60
2019,04,02,08,28,12.60
2019,04,02,08,29,12.70
2019,04,02,08,30,12.80
2019,04,02,08,31,12.80
2019,04,02,08,32,13.00
2019,04,02,08,33,13.00
2019,04,02,08,34,13.10
2019,04,02,08,35,13.20
2019,04,02,08,36,13.30
2019,04,02,08,37,13.30
2019,04,02,08,38,13.40
2019,04,02,08,39,13.50
2019,04,02,08,40,13.60
2019,04,02,08,41,13.60
2019,04,02,08,42,13.70
2019,04,02,08,43,13.70
2019,04,02,08,44,13.70
2019,04,02,08,45,13.70
2019,04,02,08,46,13.70
2019,04,02,08,47,13.70
2019,04,02,08,48,13.70
2019,04,02,08,49,13.70
2019,04,02,08,50,13.70
2019,04,02,08,51,13.70
2019,04,02,08,52,13.80
2019,04,02,08,53,13.80
2019,04,02,08,54,13.80
2019,04,02,08,55,13.80
2019,04,02,08,56,13.80
2019,04,02,08,57,13.80
2019,04,02,08,58,13.90
2019,04,02,08,59,13.90
2019,04,02,09,00,14.00
2019,04,02,09,01,14.00
2019,04,02,09,02,14.10
2019,04,02,09,03,14.10
2019,04,02,09,04,14.10
2019,04,02,09,05,14.20
2019,04,02,09,06,14.20
2019,04,02,09,07,14.20
2019,04,02,09,08,14.20
2019,04,02,09,09,14.20
2019,04,02,09,10,14.20
2019,04,02,09,11,14.20
2019,04,02,09,12,14.20
2019,04,02,09,13,14.20
2019,04,02,09,14,14.20
2019,04,02,09,15,14.20
2019,04,02,09,16,14.30
2019,04,02,09,17,14.30
2019,04,02,09,18,14.30
2019,04,02,09,19,14.30
2019,04,02,09,20,14.30
2019,04,02,09,21,14.40
2019,04,02,09,22,14.40
2019,04,02,09,23,14.40
2019,04,02,09,24,14.50
2019,04,02,09,25,14.50
2019,04,02,09,26,14.60
2019,04,02,09,27,14.60
2019,04,02,09,28,14.70
2019,04,02,09,29,14.70
2019,04,02,09,30,14.80
2019,04,02,09,31,14.80
2019,04,02,09,32,14.80
2019,04,02,09,33,14.80
2019,04,02,09,34,14.80
2019,04,02,09,35,14.80
2019,04,02,09,36,14.90
2019,04,02,09,37,14.90
2019,04,02,09,38,14.90
2019,04,02,09,39,14.90
2019,04,02,09,40,15.00
2019,04,02,09,41,15.00
2019,04,02,09,42,15.00
2019,04,02,09,43,15.10
2019,04,02,09,44,15.10
2019,04,02,09,45,15.10
2019,04,02,09,46,15.10
2019,04,02,09,47,15.00
2019,04,02,09,48,15.00
2019,04,02,09,49,15.00
2019,04,02,09,50,15.10
2019,04,02,09,51,15.10
2019,04,02,09,52,15.00
2019,04,02,09,53,15.00
2019,04,02,09,54,15.00
2019,04,02,09,55,15.00
2019,04,02,09,56,15.00
2019,04,02,09,57,15.00
2019,04,02,09,58,15.10
2019,04,02,09,59,15.10
2019,04,02,10,00,15.20
2019,04,02,10,01,15.20
2019,04,02,10,02,15.20
2019,04,02,10,03,15.20
2019,04,02,10,04,15.20
2019,04,02,10,05,15.20
2019,04,02,10,06,15.20
2019,04,02,10,07,15.20
2019,04,02,10,08,15.20
2019,04,02,10,09,15.20
2019,04,02,10,10,15.20
2019,04,02,10,11,15.20
2019,04,02,10,12,15.30
2019,04,02,10,13,15.30
2019,04,02,10,14,15.40
2019,04,02,10,15,15.40
2019,04,02,10,16,15.50
2019,04,02,10,17,15.50
2019,04,02,10,18,15.60
2019,04,02,10,19,15.60
2019,04,02,10,20,15.60
2019,04,02,10,21,15.60
2019,04,02,10,22,15.60
2019,04,02,10,23,15.60
2019,04,02,10,24,15.60
2019,04,02,10,25,15.60
2019,04,02,10,26,15.70
2019,04,02,10,27,15.80
2019,04,02,10,28,15.80
2019,04,02,10,29,15.80
2019,04,02,10,30,15.70
2019,04,02,10,31,15.60
2019,04,02,10,32,15.60
2019,04,02,10,33,15.70
2019,04,02,10,34,15.70
2019,04,02,10,35,15.70
2019,04,02,10,36,15.80
2019,04,02,10,37,15.90
2019,04,02,10,38,15.90
2019,04,02,10,39,15.90
2019,04,02,10,40,15.90
2019,04,02,10,41,16.00
2019,04,02,10,42,16.10
2019,04,02,10,43,16.10
2019,04,02,10,44,16.10
2019,04,02,10,45,16.10
2019,04,02,10,46,16.10
2019,04,02,10,47,16.10
2019,04,02,10,48,16.20
2019,04,02,10,49,16.20
2019,04,02,10,50,16.20
2019,04,02,10,51,16.20
2019,04,02,10,52,16.20
2019,04,02,10,53,16.20
2019,04,02,10,54,16.20
2019,04,02,10,55,16.20
2019,04,02,10,56,16.30
2019,04,02,10,57,16.20
2019,04,02,10,58,16.30
2019,04,02,10,59,16.30
2019,04,02,11,00,16.30
2019,04,02,11,01,16.30
2019,04,02,11,02,16.30
2019,04,02,11,03,16.30
2019,04,02,11,04,16.40
2019,04,02,11,05,16.40
2019,04,02,11,06,16.40
2019,04,02,11,07,16.50
2019,04,02,11,08,16.60
2019,04,02,11,09,16.70
2019,04,02,11,10,16.70
2019,04,02,11,11,16.60
2019,04,02,11,12,16.60
2019,04,02,11,13,16.60
2019,04,02,11,14,16.60
2019,04,02,11,15,16.70
2019,04,02,11,16,16.70
2019,04,02,11,17,16.70
2019,04,02,11,18,16.60
2019,04,02,11,19,16.50
2019,04,02,11,20,16.40
2019,04,02,11,21,16.30
2019,04,02,11,22,16.30
2019,04,02,11,23,16.20
2019,04,02,11,24,16.20
2019,04,02,11,25,16.20
2019,04,02,11,26,16.30
2019,04,02,11,27,16.40
2019,04,02,11,28,16.40
2019,04,02,11,29,16.40
2019,04,02,11,30,16.40
2019,04,02,11,31,16.40
2019,04,02,11,32,16.40
2019,04,02,11,33,16.40
2019,04,02,11,34,16.50
2019,04,02,11,35,16.60
2019,04,02,11,36,16.70
2019,04,02,11,37,16.70
2019,04,02,11,38,16.90
2019,04,02,11,39,16.90
2019,04,02,11,40,16.90
2019,04,02,11,41,16.90
2019,04,02,11,42,16.90
2019,04,02,11,43,17.00
2019,04,02,11,44,17.00
2019,04,02,11,45,17.10
2019,04,02,11,46,17.20
2019,04,02,11,47,17.20
2019,04,02,11,48,17.10
2019,04,02,11,49,17.00
2019,04,02,11,50,17.00
2019,04,02,11,51,16.90
2019,04,02,11,52,16.80
2019,04,02,11,53,16.80
2019,04,02,11,54,16.70
2019,04,02,11,55,16.70
2019,04,02,11,56,16.70
2019,04,02,11,57,16.70
2019,04,02,11,58,16.70
2019,04,02,11,59,16.70
2019,04,02,12,00,16.70
2019,04,02,12,01,16.70
2019,04,02,12,02,16.80
2019,04,02,12,03,16.90
2019,04,02,12,04,17.00
2019,04,02,12,05,17.00
2019,04,02,12,06,17.10
2019,04,02,12,07,17.20
2019,04,02,12,08,17.20
2019,04,02,12,09,17.20
2019,04,02,12,10,17.30
2019,04,02,12,11,17.30
2019,04,02,12,12,17.30
2019,04,02,12,13,17.30
2019,04,02,12,14,17.30
2019,04,02,12,15,17.30
2019,04,02,12,16,17.40
2019,04,02,12,17,17.40
2019,04,02,12,18,17.40
2019,04,02,12,19,17.40
2019,04,02,12,20,17.40
2019,04,02,12,21,17.50
2019,04,02,12,22,17.50
2019,04,02,12,23,17.40
2019,04,02,12,24,17.50
2019,04,02,12,25,17.50
2019,04,02,12,26,17.60
2019,04,02,12,27,17.60
2019,04,02,12,28,17.60
2019,04,02,12,29,17.70
2019,04,02,12,30,17.80
2019,04,02,12,31,17.90
2019,04,02,12,32,18.00
2019,04,02,12,33,18.20
2019,04,02,12,34,18.20
2019,04,02,12,35,18.20
2019,04,02,12,36,18.20
2019,04,02,12,37,18.20
2019,04,02,12,38,18.20
2019,04,02,12,39,18.20
2019,04,02,12,40,18.20
2019,04,02,12,41,18.30
2019,04,02,12,42,18.20
2019,04,02,12,43,18.20
2019,04,02,12,44,18.10
2019,04,02,12,45,18.00
2019,04,02,12,46,17.90
2019,04,02,12,47,17.90
2019,04,02,12,48,17.90
2019,04,02,12,49,18.10
2019,04,02,12,50,18.20
2019,04,02,12,51,18.30
2019,04,02,12,52,18.40
2019,04,02,12,53,18.50
2019,04,02,12,54,18.50
2019,04,02,12,55,18.40
2019,04,02,12,56,18.40
2019,04,02,12,57,18.30
2019,04,02,12,58,18.30
2019,04,02,12,59,18.20
2019,04,02,13,00,18.20
2019,04,02,13,01,18.20
2019,04,02,13,02,18.20
2019,04,02,13,03,18.20
2019,04,02,13,04,18.20
2019,04,02,13,05,18.10
2019,04,02,13,06,17.90
2019,04,02,13,07,17.80
2019,04,02,13,08,17.70
2019,04,02,13,09,17.70
2019,04,02,13,10,17.70
2019,04,02,13,11,17.60
2019,04,02,13,12,17.60
2019,04,02,13,13,17.70
2019,04,02,13,14,17.70
2019,04,02,13,15,17.70
2019,04,02,13,16,17.60
2019,04,02,13,17,17.70
2019,04,02,13,18,17.70
2019,04,02,13,19,17.80
2019,04,02,13,20,17.90
2019,04,02,13,21,17.90
2019,04,02,13,22,18.00
2019,04,02,13,23,18.10
2019,04,02,13,24,18.20
2019,04,02,13,25,18.20
2019,04,02,13,26,18.30
2019,04,02,13,27,18.40
2019,04,02,13,28,18.40
2019,04,02,13,29,18.50
2019,04,02,13,30,18.50
2019,04,02,13,31,18.50
2019,04,02,13,32,18.60
2019,04,02,13,33,18.60
2019,04,02,13,34,18.60
2019,04,02,13,35,18.70
2019,04,02,13,36,18.60
2019,04,02,13,37,18.50
2019,04,02,13,38,18.30
2019,04,02,13,39,18.20
2019,04,02,13,40,18.20
2019,04,02,13,41,18.10
2019,04,02,13,42,18.10
2019,04,02,13,43,18.10
2019,04,02,13,44,18.10
2019,04,02,13,45,18.10
2019,04,02,13,46,18.10
2019,04,02,13,47,18.10
2019,04,02,13,48,18.20
2019,04,02,13,49,18.20
2019,04,02,13,50,18.30
2019,04,02,13,51,18.40
2019,04,02,13,52,18.50
2019,04,02,13,53,18.50
2019,04,02,13,54,18.60
2019,04,02,13,55,18.60
2019,04,02,13,56,18.60
2019,04,02,13,57,18.60
2019,04,02,13,58,18.70
2019,04,02,13,59,18.70
2019,04,02,14,00,18.60
2019,04,02,14,01,18.50
2019,04,02,14,02,18.50
2019,04,02,14,03,18.40
2019,04,02,14,04,18.30
2019,04,02,14,05,18.30
2019,04,02,14,06,18.30
2019,04,02,14,07,18.40
2019,04,02,14,08,18.40
2019,04,02,14,09,18.30
2019,04,02,14,10,18.30
2019,04,02,14,11,18.30
2019,04,02,14,12,18.30
2019,04,02,14,13,18.30
2019,04,02,14,14,18.30
2019,04,02,14,15,18.40
2019,04,02,14,16,18.40
2019,04,02,14,17,18.50
2019,04,02,14,18,18.50
2019,04,02,14,19,18.60
2019,04,02,14,20,18.60
2019,04,02,14,21,18.70
2019,04,02,14,22,18.80
2019,04,02,14,23,18.90
2019,04,02,14,24,18.90
2019,04,02,14,25,18.90
2019,04,02,14,26,18.90
2019,04,02,14,27,18.90
2019,04,02,14,28,18.90
2019,04,02,14,29,18.90
2019,04,02,14,30,18.90
2019,04,02,14,31,18.80
2019,04,02,14,32,18.70
2019,04,02,14,33,18.60
2019,04,02,14,34,18.50
2019,04,02,14,35,18.50
2019,04,02,14,36,18.50
2019,04,02,14,37,18.50
2019,04,02,14,38,18.50
2019,04,02,14,39,18.50
2019,04,02,14,40,18.60
2019,04,02,14,41,18.60
2019,04,02,14,42,18.70
2019,04,02,14,43,18.70
2019,04,02,14,44,18.70
2019,04,02,14,45,18.80
2019,04,02,14,46,18.80
2019,04,02,14,47,18.80
2019,04,02,14,48,18.80
2019,04,02,14,49,18.80
2019,04,02,14,50,18.90
2019,04,02,14,51,18.80
2019,04,02,14,52,18.80
2019,04,02,14,53,18.90
2019,04,02,14,54,18.90
2019,04,02,14,55,18.90
2019,04,02,14,56,18.90
2019,04,02,14,57,18.90
2019,04,02,14,58,19.00
2019,04,02,14,59,19.10
2019,04,02,15,00,19.10
2019,04,02,15,01,19.10
2019,04,02,15,02,19.10
2019,04,02,15,03,19.10
2019,04,02,15,04,19.10
2019,04,02,15,05,19.10
2019,04,02,15,06,19.10
2019,04,02,15,07,19.10
2019,04,02,15,08,19.10
2019,04,02,15,09,19.00
2019,04,02,15,10,18.90
2019,04,02,15,11,18.90
2019,04,02,15,12,18.80
2019,04,02,15,13,18.70
2019,04,02,15,14,18.70
2019,04,02,15,15,18.70
2019,04,02,15,16,18.60
2019,04,02,15,17,18.60
2019,04,02,15,18,18.50
2019,04,02,15,19,18.50
2019,04,02,15,20,18.50
2019,04,02,15,21,18.50
2019,04,02,15,22,18.60
2019,04,02,15,23,18.60
2019,04,02,15,24,18.60
2019,04,02,15,25,18.70
2019,04,02,15,26,18.70
2019,04,02,15,27,18.70
2019,04,02,15,28,18.80
2019,04,02,15,29,18.80
2019,04,02,15,30,18.80
2019,04,02,15,31,18.80
2019,04,02,15,32,18.80
2019,04,02,15,33,18.80
2019,04,02,15,34,18.80
2019,04,02,15,35,18.90
2019,04,02,15,36,18.90
2019,04,02,15,37,18.90
2019,04,02,15,38,18.90
2019,04,02,15,39,18.90
2019,04,02,15,40,18.90
2019,04,02,15,41,18.90
2019,04,02,15,42,18.90
2019,04,02,15,43,18.90
2019,04,02,15,44,18.90
2019,04,02,15,45,18.90
2019,04,02,15,46,18.80
2019,04,02,15,47,18.80
2019,04,02,15,48,18.70
2019,04,02,15,49,18.70
2019,04,02,15,50,18.70
2019,04,02,15,51,18.60
2019,04,02,15,52,18.60
2019,04,02,15,53,18.50
2019,04,02,15,54,18.50
2019,04,02,15,55,18.50
2019,04,02,15,56,18.50
2019,04,02,15,57,18.40
2019,04,02,15,58,18.40
2019,04,02,15,59,18.50
2019,04,02,16,00,18.50
2019,04,02,16,01,18.50
2019,04,02,16,02,18.50
2019,04,02,16,03,18.50
2019,04,02,16,04,18.40
2019,04,02,16,05,18.40
2019,04,02,16,06,18.40
2019,04,02,16,07,18.30
2019,04,02,16,08,18.30
2019,04,02,16,09,18.30
2019,04,02,16,10,18.30
2019,04,02,16,11,18.30
2019,04,02,16,12,18.30
2019,04,02,16,13,18.30
2019,04,02,16,14,18.30
2019,04,02,16,15,18.20
2019,04,02,16,16,18.20
2019,04,02,16,17,18.20
2019,04,02,16,18,18.20
2019,04,02,16,19,18.20
2019,04,02,16,20,18.20
2019,04,02,16,21,18.20
2019,04,02,16,22,18.20
2019,04,02,16,23,18.20
2019,04,02,16,24,18.20
2019,04,02,16,25,18.20
2019,04,02,16,26,18.20
2019,04,02,16,27,18.20
2019,04,02,16,28,18.20
2019,04,02,16,29,18.20
2019,04,02,16,30,18.20
2019,04,02,16,31,18.20
2019,04,02,16,32,18.20
2019,04,02,16,33,18.20
2019,04,02,16,34,18.20
2019,04,02,16,35,18.20
2019,04,02,16,36,18.20
2019,04,02,16,37,18.20
2019,04,02,16,38,18.30
2019,04,02,16,39,18.30
2019,04,02,16,40,18.30
2019,04,02,16,41,18.30
2019,04,02,16,42,18.30
2019,04,02,16,43,18.20
2019,04,02,16,44,18.20
2019,04,02,16,45,18.10
2019,04,02,16,46,18.00
2019,04,02,16,47,17.90
2019,04,02,16,48,17.70
2019,04,02,16,49,17.50
2019,04,02,16,50,17.30
2019,04,02,16,51,17.10
2019,04,02,16,52,16.90
2019,04,02,16,53,16.80
2019,04,02,16,54,16.70
2019,04,02,16,55,16.70
2019,04,02,16,56,16.80
2019,04,02,16,57,16.80
2019,04,02,16,58,16.80
2019,04,02,16,59,16.70
2019,04,02,17,00,16.60
2019,04,02,17,01,16.40
2019,04,02,17,02,16.30
2019,04,02,17,03,16.20
2019,04,02,17,04,16.00
2019,04,02,17,05,15.90
2019,04,02,17,06,15.70
2019,04,02,17,07,15.60
2019,04,02,17,08,15.50
2019,04,02,17,09,15.40
2019,04,02,17,10,15.30
2019,04,02,17,11,15.30
2019,04,02,17,12,15.30
2019,04,02,17,13,15.30
2019,04,02,17,14,15.20
2019,04,02,17,15,15.20
2019,04,02,17,16,15.20
2019,04,02,17,17,15.10
2019,04,02,17,18,15.10
2019,04,02,17,19,15.10
2019,04,02,17,20,15.10
2019,04,02,17,21,15.10
2019,04,02,17,22,15.20
2019,04,02,17,23,15.20
2019,04,02,17,24,15.30
2019,04,02,17,25,15.30
2019,04,02,17,26,15.30
2019,04,02,17,27,15.30
2019,04,02,17,28,15.40
2019,04,02,17,29,15.40
2019,04,02,17,30,15.40
2019,04,02,17,31,15.40
2019,04,02,17,32,15.50
2019,04,02,17,33,15.50
2019,04,02,17,34,15.60
2019,04,02,17,35,15.60
2019,04,02,17,36,15.60